Retour au catalogue

STARLINK-5477

ActifCommunicationsVLEO
NORAD 55659·PAYLOAD·🇺🇸 United States

Lancé Feb 17, 2023 depuis Vandenberg Space Force Base

Loading…

Prochains Passages (prochaines 24 heures)

TLE

FraisSource: CelesTrak SupGP

Époque: Sep 15, 2026, 02:24 UTC

1 55659C 23021AH  26258.10048611  .00663350  00000+0  53925-1 0  2587
2 55659  70.0007  47.0172 0002993 273.1458  67.5297 14.99170350    16

Suivez STARLINK-5477 en temps réel avec AllMySat

Download on the App Store